Location: Dead Woman Crossing
(43.5369°N, 106.3228°W)
Time: 22:23:27
(UTC+00:00)

O/OREOS (USA 219) - Pass Details

Date: 06 July 2022
Orbit: 621 x 646 km, 72.0° (Epoch: 22 May)

Event Time Altitude Azimuth Distance (km) Brightness Sun altitude
Rises 07:25:00 0° 325° (NW) 2,965 ? -23.7°
Reaches altitude 10° 07:27:33 10° 313° (NW) 2,052 ? -23.7°
Enters shadow 07:30:55 26° 268° (W) 1,267 ? -23.6°
